Weather History for Big Piney, WY

Change the Weather History Date:

Friday, May 11, 2012

  Actual Average Record
Temperature  
Mean Temperature 6 °C 7 °C  
Max Temperature 17 °C 16 °C 30 °C (2007)
Min Temperature -5 °C -2 °C -9 °C (1999)
Degree Days  
Heating Degree Days 23 21  
Month to date heating degree days 245  
Since 1 July heating degree days 9776  
Cooling Degree Days 0 0  
Month to date cooling degree days 0  
Year to date cooling degree days 0  
Moisture  
Dew Point -7 °C    
Average Humidity 42    
Maximum Humidity 74    
Minimum Humidity 15    
Precipitation  
Precipitation 0.00 mm 0.76 mm 1.70 mm (2000)
Month to date precipitation 0.28  
Year to date precipitation 1.91  
Sea Level Pressure  
Sea Level Pressure 1017 hPa    
Wind  
Wind Speed 8 km/h (SSW)    
Max Wind Speed 24 km/h    
Max Gust Speed 34 km/h    
Visibility 16 kilometers    
Events      
T = Trace of Precipitation, MM = Missing Value Source: NWS Daily Summary

Daily Weather History Graph

Daily Weather History Graph

Search for Another Location

Airport:

Trip Planner

Search our weather history database for the weather conditions in past years. The results will help you decide how hot, cold, wet, or windy it might be!

Date:

Astronomy

May. 11, 2012 Rise Set
Actual Time 6:02 AM MDT 8:32 PM MDT
Civil Twilight 5:30 AM MDT 9:04 PM MDT
Nautical Twilight 4:50 AM MDT 9:44 PM MDT
Astronomical Twilight 4:05 AM MDT 10:29 PM MDT
Moon 1:12 AM MDT (5/11) 11:40 AM MDT (5/11)
Length of Visible Light 15h 34m
Length of Day
14h 30m
Waning Gibbous, 62% of the Moon is Illuminated
May 11
Waning Gibbous
May 12
Last Quarter
May 20
New
May 28
First Quarter
Jun 4
Full

Hourly Weather History & Observations

Time (MDT) Temp. Windchill Dew Point Humidity Pressure Visibility Wind Dir Wind Speed Gust Speed Precip Events Conditions
12:53 AM 1.1 °C -1.2 °C -6.7 °C 56% 1013.3 hPa 16.1 km North 7.4 km/h / 2.1 m/s - N/A   Clear
1:53 AM 0.0 °C - -6.7 °C 61% 1014.3 hPa 16.1 km Calm Calm - N/A   Clear
2:53 AM -2.8 °C - -7.8 °C 69% 1015.1 hPa 16.1 km Calm Calm - N/A   Clear
3:53 AM -0.6 °C -2.5 °C -6.1 °C 67% 1014.9 hPa 16.1 km South 5.6 km/h / 1.5 m/s - N/A   Clear
4:53 AM -2.8 °C - -7.8 °C 69% 1016.0 hPa 16.1 km Calm Calm - N/A   Clear
5:53 AM -5.0 °C -9.0 °C -8.9 °C 74% 1017.1 hPa 16.1 km NNW 9.3 km/h / 2.6 m/s - N/A   Clear
6:53 AM -2.2 °C -4.3 °C -7.2 °C 69% 1017.5 hPa 16.1 km East 5.6 km/h / 1.5 m/s - N/A   Clear
7:53 AM 2.2 °C 0.7 °C -5.0 °C 59% 1017.9 hPa 16.1 km SSW 5.6 km/h / 1.5 m/s - N/A   Clear
8:53 AM 4.4 °C 2.1 °C -3.3 °C 58% 1018.6 hPa 16.1 km South 9.3 km/h / 2.6 m/s - N/A   Clear
9:53 AM 7.8 °C 5.2 °C -2.8 °C 47% 1018.1 hPa 16.1 km South 14.8 km/h / 4.1 m/s - N/A   Clear
10:53 AM 10.0 °C - -3.9 °C 38% 1018.1 hPa 16.1 km SSW 16.7 km/h / 4.6 m/s 31.5 km/h / 8.7 m/s N/A   Clear
11:53 AM 12.2 °C - -5.0 °C 30% 1017.8 hPa 16.1 km SSW 11.1 km/h / 3.1 m/s - N/A   Clear
12:53 PM 13.3 °C - -6.7 °C 25% 1017.1 hPa 16.1 km SSW 16.7 km/h / 4.6 m/s 29.6 km/h / 8.2 m/s N/A   Clear
1:53 PM 14.4 °C - -6.7 °C 23% 1016.3 hPa 16.1 km SE 14.8 km/h / 4.1 m/s 27.8 km/h / 7.7 m/s N/A   Clear
2:53 PM 15.6 °C - -6.7 °C 21% 1016.2 hPa 16.1 km South 20.4 km/h / 5.7 m/s 29.6 km/h / 8.2 m/s N/A   Mostly Cloudy
3:53 PM 15.0 °C - -7.2 °C 21% 1015.3 hPa 16.1 km Calm Calm - N/A   Overcast
4:53 PM 15.0 °C - -9.4 °C 18% 1015.7 hPa 16.1 km Variable 7.4 km/h / 2.1 m/s 27.8 km/h / 7.7 m/s N/A   Mostly Cloudy
5:53 PM 14.4 °C - -8.3 °C 20% 1016.5 hPa 16.1 km ENE 13.0 km/h / 3.6 m/s 33.3 km/h / 9.3 m/s N/A   Overcast
6:53 PM 16.1 °C - -11.1 °C 15% 1015.3 hPa 16.1 km NNW 24.1 km/h / 6.7 m/s 31.5 km/h / 8.7 m/s N/A   Overcast
7:53 PM 13.3 °C - -13.3 °C 15% 1015.6 hPa 16.1 km NNW 20.4 km/h / 5.7 m/s - N/A   Clear
8:53 PM 7.2 °C 4.5 °C -9.4 °C 30% 1017.3 hPa 16.1 km North 14.8 km/h / 4.1 m/s - N/A   Clear
9:53 PM 3.9 °C 0.2 °C -7.8 °C 43% 1018.2 hPa 16.1 km NNW 16.7 km/h / 4.6 m/s - N/A   Clear
10:53 PM 2.8 °C 0.7 °C -7.8 °C 46% 1019.0 hPa 16.1 km Variable 7.4 km/h / 2.1 m/s - N/A   Clear
11:53 PM 3.9 °C - -7.2 °C 45% 1018.7 hPa 16.1 km Calm Calm - N/A   Clear